Knights of honor | рыцари чести - скачать стратегию, моды, скриншоты.

Информация о пользователе

Привет, Гость! Войдите или зарегистрируйтесь.



Обсуждение модов

Тем 1 страница 20 из 29

Тема Ответов Просмотров Последнее сообщение
0 100 2020-05-04 10:13:18  Rwatt123
0 102 2020-03-19 17:20:19  amarawatt
0 101 2020-03-17 09:51:46  Cadencealida
0 124 2020-02-17 10:04:49  Rwatt123
0 155 2019-12-21 15:14:48  Linden George
0 160 2019-12-03 12:39:02  georgepaul123
0 181 2019-12-03 12:36:54  georgepaul123
0 159 2019-12-03 10:21:33  georgepaul123
0 167 2019-12-03 10:20:21  georgepaul123
0 165 2019-11-30 10:49:42  georgepaul123
0 152 2019-11-30 10:43:28  georgepaul123
12 Migrate Office 365 Mailbox  georgepaul123
0 163 2019-11-30 08:45:06  georgepaul123
0 164 2019-11-30 08:43:32  georgepaul123
0 168 2019-11-29 12:26:13  georgepaul123
0 166 2019-11-29 12:21:56  georgepaul123
0 176 2019-11-27 09:53:11  georgepaul123
1 923 2013-06-14 13:29:06  Антон
18 Balkans mod  Илья Сергеев
5 1140 2013-06-05 13:47:52  dj90
19 Religion Mod for Knights of Honor (v1.01)  Илья Сергеев
4 2540 2013-05-27 23:55:08  Anton2912
20 Crusader Scenario  Илья Сергеев
13 1211 2011-10-24 11:49:37  митя


Создать форум